Regional Weather Roundup
Issued by NWS Little Rock, AR

Home | Current Version | Previous Version | Text Only | Print | Product List | Glossary On
Versions: 1 2 3 4 5 6 7 8 9 10 11 12 13 14 15 16 17 18 19 20 21 22 23 24 25 26 27 28 29 30 31 32 33 34 35 36 37 38 39 40 41 42 43 44 45 46 47 48 49 50
000
ASUS44 KLZK 301805
RWRLZK

WEATHER ROUNDUP FOR ARKANSAS
NATIONAL WEATHER SERVICE LITTLE ROCK AR
1200 PM CST FRI JAN 30 2015

NOTE: "FAIR" INDICATES FEW OR NO CLOUDS BELOW 12,000 FEET WITH NO
SIGNIFICANT WEATHER AND/OR OBSTRUCTIONS TO VISIBILITY.

ARZ001-003-010-029-301900-
NORTHWEST ARKANSAS

CITY           SKY/WX    TMP DP  RH WIND       PRES   REMARKS
FAYETTEVILLE   PTSUNNY   39  24  55 E3        30.50F
6HR MIN TEMP:  21; 6HR MAX TEMP:  40;

FORT SMITH     PTSUNNY   44  27  51 MISG      30.53F
6HR MIN TEMP:  27; 6HR MAX TEMP:  44;

HARRISON       SUNNY     40  23  50 SE5       30.50F
6HR MIN TEMP:  25; 6HR MAX TEMP:  40;

BENTONVILLE    MOSUNNY   39  23  52 S3        30.52F
6HR MIN TEMP:  25; 6HR MAX TEMP:  41;

ROGERS         MOSUNNY   39  20  46 E5        30.50F
6HR MIN TEMP:  23; 6HR MAX TEMP:  41;

SILOAM SPGS    PTSUNNY   37  21  52 CALM      30.53F
6HR MIN TEMP:  27; 6HR MAX TEMP:  37;

HIGHFILL       MOSUNNY   39  24  55 CALM      30.50F
6HR MIN TEMP:  23; 6HR MAX TEMP:  39;

SPRINGDALE     SUNNY     37  23  56 CALM      30.52F
$$

ARZ004-005-016-301900-
NORTH CENTRAL ARKANSAS

CITY           SKY/WX    TMP DP  RH WIND       PRES   REMARKS
BATESVILLE     SUNNY     43  23  45 CALM      30.52F
6HR MIN TEMP:  30; 6HR MAX TEMP:  45;

FLIPPIN        SUNNY     39  19  45 SE5       30.51F
6HR MIN TEMP:  27; 6HR MAX TEMP:  39;

MTN HOME       SUNNY     41  21  44 N3        30.50F
6HR MIN TEMP:  24; 6HR MAX TEMP:  41;

$$

ARZ040-041-301900-
WEST CENTRAL ARKANSAS

CITY           SKY/WX    TMP DP  RH WIND       PRES   REMARKS
MENA           CLOUDY    50  27  40 E5        30.49F
MOUNT IDA      MOSUNNY   46  24  42 CALM      30.49F
6HR MIN TEMP:  25; 6HR MAX TEMP:  47;

$$

ARZ009-017-025-026-028-301900-
NORTHEAST ARKANSAS

CITY           SKY/WX    TMP DP  RH WIND       PRES   REMARKS
CORNING        FAIR      39  27  60 NE8       30.54F
JONESBORO      SUNNY     41  29  62 NE13      30.52F
6HR MIN TEMP:  27; 6HR MAX TEMP:  41;

NEWPORT        SUNNY     42  29  60 NE10      30.54F
6HR MIN TEMP:  28; 6HR MAX TEMP:  42;

WALNUT RIDGE   SUNNY     39  27  60 NE8       30.52F
6HR MIN TEMP:  25; 6HR MAX TEMP:  39;

BLYTHEVILLE    SUNNY     43  27  53 N10G22    30.52F
6HR MIN TEMP:  26; 6HR MAX TEMP:  44;

$$

ARZ022-023-033-042-044-301900-
CENTRAL ARKANSAS

CITY           SKY/WX    TMP DP  RH WIND       PRES   REMARKS
LITTLE ROCK    PTSUNNY   47  26  44 NE5       30.52F
6HR MIN TEMP:  32; 6HR MAX TEMP:  47;

N LITTLE ROCK  PTSUNNY   45  30  57 N5        30.52F
6HR MIN TEMP:  32; 6HR MAX TEMP:  46;

JACKSONVILLE   MOSUNNY   45  27  50 NE6       30.51F
6HR MIN TEMP:  26; 6HR MAX TEMP:  45;

SEARCY         MOSUNNY   45  27  49 VRB3      30.54F
6HR MIN TEMP:  25; 6HR MAX TEMP:  46;

HOT SPRINGS    SUNNY     45  27  49 VRB6      30.50F
6HR MIN TEMP:  30; 6HR MAX TEMP:  46;

RUSSELLVILLE   CLOUDY    41  27  57 VRB3      30.53F
6HR MIN TEMP:  29; 6HR MAX TEMP:  42;

CLINTON        FAIR      45  23  42 W5        30.54F
$$

ARZ036-301900-
EAST ARKANSAS

CITY           SKY/WX    TMP DP  RH WIND       PRES   REMARKS
WEST MEMPHIS   SUNNY     45  27  49 NE8       30.49F
6HR MIN TEMP:  31; 6HR MAX TEMP:  45;

$$

ARZ050-053-066-070-073-301900-
SOUTHWEST ARKANSAS

CITY           SKY/WX    TMP DP  RH WIND       PRES   REMARKS
ARKADELPHIA    FAIR      47  31  54 VRB6      30.51F
6HR MIN TEMP:  28; 6HR MAX TEMP:  47;

CAMDEN         MOSUNNY   50  27  40 MISG      30.52F
TEXARKANA      MOSUNNY   47  30  51 NE6       30.49F
6HR MIN TEMP:  33; 6HR MAX TEMP:  48;

EL DORADO      MOSUNNY   48  29  47 E6        30.49F
6HR MIN TEMP:  35; 6HR MAX TEMP:  48;

DE QUEEN       MOSUNNY   49  28  44 CALM      30.49F
6HR MIN TEMP:  27; 6HR MAX TEMP:  50;

$$

ARZ056-057-069-301900-
SOUTHEAST ARKANSAS

CITY           SKY/WX    TMP DP  RH WIND       PRES   REMARKS
PINE BLUFF     SUNNY     45  29  53 NE12      30.51F
6HR MIN TEMP:  34; 6HR MAX TEMP:  45;

STUTTGART      SUNNY     45  27  49 N10       30.53F
6HR MIN TEMP:  32; 6HR MAX TEMP:  45;

MONTICELLO     SUNNY     48  30  49 N9G18     30.49F
6HR MIN TEMP:  35; 6HR MAX TEMP:  48;


$$





USA.gov is the U.S. government's official web portal to all federal, state and local government web resources and services.